Погода в Нижних Юрях

Россия / Удмуртская Республика     56°24′26″N   52°43′02″E
темп.,
°C
ветер,
м/с
пор.,
м/с
влажн.,
%
обл.,
%
осадки,
мм/ч
давл.,
гПа
погр.,
м
15 мая, сб
сб1501:00+17ююз410625 0.0 1019178
04:00+16юз357212 0.0 102083
07:00+20юз3767100 0.0 1020215
10:00+24ююз4650100 0.0 1019502
13:00+27ююз683698 0.0 1019962
16:00+28юз5936100 0.0 10191260
19:00+24ююз51250100 0.0 1018297
22:00+20ююз413596 0.0 1018232
16 мая, вс
вс1601:00+18ююз376164 0.0 1018107
04:00+16ююз37605 0.0 101998
07:00+20ююз411565 0.0 1019282
10:00+26ююз69405 0.0 1018626
13:00+29ююз79325 0.0 10181589
16:00+29юз6103678 0.0 10172630
19:00+25ююз494973 0.0 1016231
22:00+20юз3654100 0.0 101791
17 мая, пн
пн1701:00+18юз385798 0.0 1017116
04:00+16зюз336616 0.0 101740
07:00+20зюз35607 0.0 1018176
10:00+25зюз354591 0.0 1018795
13:00+27зюз58385 0.0 10181765
16:00+28з58316 0.0 10172275
19:00+24зюз3752100 0.0 1017132
22:00+20з33605 0.0 101837
18 мая, вт
вт1801:00+17сз127494 0.0 101911
04:00+16юз00795 0.0 101911
07:00+21всв006587 0.0 1019106
10:00+26ююз12505 0.0 1019693
13:00+29зюз25305 0.0 10183007
16:00+29з3427100 0.0 10173024
19:00+25зсз224199 0.0 101712
22:00+20с12485 0.0 101811
19 мая, ср
ср1901:00+18в366812 0.0 101890
04:00+16в388330 0.0 1019134
07:00+19юв487010 0.0 1019302
10:00+24юв56545 0.0 1019744
13:00+27юв56455 0.0 10191297
16:00+27юв56418 0.0 10182083
19:00+24вюв510560 0.0 1017374
22:00+19вюв4126011 0.0 1017253